Year,Month,Day,Hour,Minute,Value (Times are PST for temperature in C)
2015,02,16,00,00,1.80
2015,02,16,00,01,1.80
2015,02,16,00,02,1.80
2015,02,16,00,03,1.80
2015,02,16,00,04,1.70
2015,02,16,00,05,1.70
2015,02,16,00,06,1.70
2015,02,16,00,07,1.70
2015,02,16,00,08,1.70
2015,02,16,00,09,1.80
2015,02,16,00,10,1.80
2015,02,16,00,11,1.80
2015,02,16,00,12,1.80
2015,02,16,00,13,1.90
2015,02,16,00,14,1.90
2015,02,16,00,15,1.90
2015,02,16,00,16,1.90
2015,02,16,00,17,1.90
2015,02,16,00,18,2.00
2015,02,16,00,19,2.00
2015,02,16,00,20,2.00
2015,02,16,00,21,2.00
2015,02,16,00,22,2.00
2015,02,16,00,23,2.00
2015,02,16,00,24,2.00
2015,02,16,00,25,2.00
2015,02,16,00,26,1.90
2015,02,16,00,27,1.90
2015,02,16,00,28,1.90
2015,02,16,00,29,1.90
2015,02,16,00,30,1.90
2015,02,16,00,31,1.80
2015,02,16,00,32,1.80
2015,02,16,00,33,1.80
2015,02,16,00,34,1.80
2015,02,16,00,35,1.80
2015,02,16,00,36,1.70
2015,02,16,00,37,1.70
2015,02,16,00,38,1.70
2015,02,16,00,39,1.60
2015,02,16,00,40,1.60
2015,02,16,00,41,1.60
2015,02,16,00,42,1.50
2015,02,16,00,43,1.50
2015,02,16,00,44,1.50
2015,02,16,00,45,1.40
2015,02,16,00,46,1.40
2015,02,16,00,47,1.50
2015,02,16,00,48,1.50
2015,02,16,00,49,1.50
2015,02,16,00,50,1.50
2015,02,16,00,51,1.60
2015,02,16,00,52,1.60
2015,02,16,00,53,1.60
2015,02,16,00,54,1.60
2015,02,16,00,55,1.60
2015,02,16,00,56,1.60
2015,02,16,00,57,1.60
2015,02,16,00,58,1.50
2015,02,16,00,59,1.50
2015,02,16,01,00,1.50
2015,02,16,01,01,1.50
2015,02,16,01,02,1.50
2015,02,16,01,03,1.40
2015,02,16,01,04,1.40
2015,02,16,01,05,1.40
2015,02,16,01,06,1.40
2015,02,16,01,07,1.30
2015,02,16,01,08,1.30
2015,02,16,01,09,1.30
2015,02,16,01,10,1.30
2015,02,16,01,11,1.30
2015,02,16,01,12,1.30
2015,02,16,01,13,1.30
2015,02,16,01,14,1.30
2015,02,16,01,15,1.30
2015,02,16,01,16,1.40
2015,02,16,01,17,1.40
2015,02,16,01,18,1.50
2015,02,16,01,19,1.50
2015,02,16,01,20,1.50
2015,02,16,01,21,1.50
2015,02,16,01,22,1.50
2015,02,16,01,23,1.50
2015,02,16,01,24,1.50
2015,02,16,01,25,1.50
2015,02,16,01,26,1.50
2015,02,16,01,27,1.50
2015,02,16,01,28,1.50
2015,02,16,01,29,1.50
2015,02,16,01,30,1.50
2015,02,16,01,31,1.50
2015,02,16,01,32,1.40
2015,02,16,01,33,1.40
2015,02,16,01,34,1.40
2015,02,16,01,35,1.40
2015,02,16,01,36,1.40
2015,02,16,01,37,1.40
2015,02,16,01,38,1.40
2015,02,16,01,39,1.30
2015,02,16,01,40,1.30
2015,02,16,01,41,1.30
2015,02,16,01,42,1.30
2015,02,16,01,43,1.30
2015,02,16,01,44,1.30
2015,02,16,01,45,1.30
2015,02,16,01,46,1.30
2015,02,16,01,47,1.30
2015,02,16,01,48,1.30
2015,02,16,01,49,1.30
2015,02,16,01,50,1.30
2015,02,16,01,51,1.30
2015,02,16,01,52,1.30
2015,02,16,01,53,1.30
2015,02,16,01,54,1.30
2015,02,16,01,55,1.30
2015,02,16,01,56,1.30
2015,02,16,01,57,1.30
2015,02,16,01,58,1.30
2015,02,16,01,59,1.30
2015,02,16,02,00,1.40
2015,02,16,02,01,1.40
2015,02,16,02,02,1.40
2015,02,16,02,03,1.50
2015,02,16,02,04,1.60
2015,02,16,02,05,1.60
2015,02,16,02,06,1.70
2015,02,16,02,07,1.80
2015,02,16,02,08,1.90
2015,02,16,02,09,2.00
2015,02,16,02,10,2.10
2015,02,16,02,11,2.10
2015,02,16,02,12,2.20
2015,02,16,02,13,2.20
2015,02,16,02,14,2.20
2015,02,16,02,15,2.30
2015,02,16,02,16,2.30
2015,02,16,02,17,2.30
2015,02,16,02,18,2.40
2015,02,16,02,19,2.50
2015,02,16,02,20,2.50
2015,02,16,02,21,2.60
2015,02,16,02,22,2.70
2015,02,16,02,23,2.70
2015,02,16,02,24,2.80
2015,02,16,02,25,2.80
2015,02,16,02,26,2.90
2015,02,16,02,27,3.00
2015,02,16,02,28,3.00
2015,02,16,02,29,3.10
2015,02,16,02,30,3.10
2015,02,16,02,31,3.10
2015,02,16,02,32,3.20
2015,02,16,02,33,3.20
2015,02,16,02,34,3.20
2015,02,16,02,35,3.20
2015,02,16,02,36,3.20
2015,02,16,02,37,3.20
2015,02,16,02,38,3.20
2015,02,16,02,39,3.20
2015,02,16,02,40,3.10
2015,02,16,02,41,3.10
2015,02,16,02,42,3.00
2015,02,16,02,43,3.00
2015,02,16,02,44,2.90
2015,02,16,02,45,2.90
2015,02,16,02,46,2.80
2015,02,16,02,47,2.80
2015,02,16,02,48,2.80
2015,02,16,02,49,2.80
2015,02,16,02,50,2.80
2015,02,16,02,51,2.80
2015,02,16,02,52,2.80
2015,02,16,02,53,2.80
2015,02,16,02,54,2.80
2015,02,16,02,55,2.80
2015,02,16,02,56,2.80
2015,02,16,02,57,2.80
2015,02,16,02,58,2.90
2015,02,16,02,59,2.90
2015,02,16,03,00,2.90
2015,02,16,03,01,3.00
2015,02,16,03,02,3.00
2015,02,16,03,06,3.20
2015,02,16,03,07,3.20
2015,02,16,03,08,3.30
2015,02,16,03,09,3.40
2015,02,16,03,10,3.50
2015,02,16,03,11,3.50
2015,02,16,03,12,3.60
2015,02,16,03,13,3.60
2015,02,16,03,14,3.60
2015,02,16,03,15,3.60
2015,02,16,03,16,3.60
2015,02,16,03,17,3.60
2015,02,16,03,18,3.60
2015,02,16,03,19,3.60
2015,02,16,03,20,3.60
2015,02,16,03,21,3.50
2015,02,16,03,22,3.60
2015,02,16,03,23,3.60
2015,02,16,03,24,3.60
2015,02,16,03,25,3.60
2015,02,16,03,26,3.60
2015,02,16,03,27,3.60
2015,02,16,03,28,3.50
2015,02,16,03,29,3.50
2015,02,16,03,30,3.50
2015,02,16,03,31,3.50
2015,02,16,03,32,3.50
2015,02,16,03,33,3.40
2015,02,16,03,34,3.40
2015,02,16,03,35,3.40
2015,02,16,03,36,3.30
2015,02,16,03,37,3.30
2015,02,16,03,38,3.30
2015,02,16,03,39,3.30
2015,02,16,03,40,3.30
2015,02,16,03,41,3.30
2015,02,16,03,42,3.30
2015,02,16,03,43,3.30
2015,02,16,03,44,3.30
2015,02,16,03,45,3.40
2015,02,16,03,46,3.40
2015,02,16,03,47,3.40
2015,02,16,03,48,3.50
2015,02,16,03,49,3.50
2015,02,16,03,50,3.50
2015,02,16,03,51,3.50
2015,02,16,03,52,3.60
2015,02,16,03,53,3.60
2015,02,16,03,54,3.60
2015,02,16,03,55,3.70
2015,02,16,03,56,3.70
2015,02,16,03,57,3.70
2015,02,16,03,58,3.70
2015,02,16,03,59,3.80
2015,02,16,04,00,3.80
2015,02,16,04,01,3.80
2015,02,16,04,02,3.80
2015,02,16,04,03,3.90
2015,02,16,04,04,3.90
2015,02,16,04,05,3.90
2015,02,16,04,06,3.90
2015,02,16,04,07,3.90
2015,02,16,04,08,4.00
2015,02,16,04,09,4.00
2015,02,16,04,10,4.10
2015,02,16,04,11,4.10
2015,02,16,04,12,4.20
2015,02,16,04,13,4.30
2015,02,16,04,14,4.30
2015,02,16,04,15,4.40
2015,02,16,04,16,4.40
2015,02,16,04,17,4.50
2015,02,16,04,18,4.50
2015,02,16,04,19,4.50
2015,02,16,04,20,4.60
2015,02,16,04,21,4.60
2015,02,16,04,22,4.60
2015,02,16,04,23,4.60
2015,02,16,04,24,4.60
2015,02,16,04,25,4.60
2015,02,16,04,26,4.70
2015,02,16,04,27,4.70
2015,02,16,04,28,4.70
2015,02,16,04,29,4.70
2015,02,16,04,30,4.80
2015,02,16,04,31,4.90
2015,02,16,04,32,4.90
2015,02,16,04,33,5.00
2015,02,16,04,34,5.10
2015,02,16,04,35,5.10
2015,02,16,04,36,5.20
2015,02,16,04,37,5.20
2015,02,16,04,38,5.30
2015,02,16,04,39,5.30
2015,02,16,04,40,5.30
2015,02,16,04,41,5.30
2015,02,16,04,42,5.30
2015,02,16,04,43,5.30
2015,02,16,04,44,5.30
2015,02,16,04,45,5.30
2015,02,16,04,46,5.40
2015,02,16,04,47,5.40
2015,02,16,04,48,5.40
2015,02,16,04,49,5.40
2015,02,16,04,50,5.40
2015,02,16,04,51,5.40
2015,02,16,04,52,5.40
2015,02,16,04,53,5.40
2015,02,16,04,54,5.50
2015,02,16,04,55,5.50
2015,02,16,04,56,5.50
2015,02,16,04,57,5.50
2015,02,16,04,58,5.60
2015,02,16,04,59,5.60
2015,02,16,05,00,5.60
2015,02,16,05,01,5.60
2015,02,16,05,02,5.60
2015,02,16,05,03,5.50
2015,02,16,05,04,5.50
2015,02,16,05,05,5.50
2015,02,16,05,06,5.60
2015,02,16,05,07,5.60
2015,02,16,05,08,5.60
2015,02,16,05,09,5.70
2015,02,16,05,10,5.70
2015,02,16,05,11,5.70
2015,02,16,05,12,5.70
2015,02,16,05,13,5.80
2015,02,16,05,14,5.80
2015,02,16,05,15,5.80
2015,02,16,05,16,5.80
2015,02,16,05,17,5.80
2015,02,16,05,18,5.80
2015,02,16,05,19,5.80
2015,02,16,05,20,5.80
2015,02,16,05,21,5.80
2015,02,16,05,22,5.80
2015,02,16,05,23,5.80
2015,02,16,05,24,5.80
2015,02,16,05,25,5.80
2015,02,16,05,26,5.80
2015,02,16,05,27,5.80
2015,02,16,05,28,5.90
2015,02,16,05,29,5.90
2015,02,16,05,30,5.90
2015,02,16,05,31,6.00
2015,02,16,05,32,6.10
2015,02,16,05,33,6.20
2015,02,16,05,34,6.30
2015,02,16,05,35,6.30
2015,02,16,05,36,6.40
2015,02,16,05,37,6.50
2015,02,16,05,38,6.50
2015,02,16,05,39,6.60
2015,02,16,05,40,6.70
2015,02,16,05,41,6.70
2015,02,16,05,42,6.80
2015,02,16,05,43,6.80
2015,02,16,05,44,6.90
2015,02,16,05,45,6.90
2015,02,16,05,46,6.90
2015,02,16,05,47,6.90
2015,02,16,05,48,6.90
2015,02,16,05,49,6.80
2015,02,16,05,50,6.80
2015,02,16,05,51,6.90
2015,02,16,05,52,6.90
2015,02,16,05,53,6.90
2015,02,16,05,54,6.90
2015,02,16,05,55,6.90
2015,02,16,05,56,6.80
2015,02,16,05,57,6.80
2015,02,16,05,58,6.80
2015,02,16,05,59,6.80
2015,02,16,06,00,6.80
2015,02,16,06,01,6.80
2015,02,16,06,02,6.70
2015,02,16,06,03,6.70
2015,02,16,06,04,6.70
2015,02,16,06,05,6.70
2015,02,16,06,06,6.70
2015,02,16,06,07,6.70
2015,02,16,06,08,6.70
2015,02,16,06,09,6.70
2015,02,16,06,10,6.70
2015,02,16,06,11,6.70
2015,02,16,06,12,6.70
2015,02,16,06,13,6.70
2015,02,16,06,14,6.60
2015,02,16,06,15,6.60
2015,02,16,06,16,6.60
2015,02,16,06,17,6.60
2015,02,16,06,18,6.50
2015,02,16,06,19,6.50
2015,02,16,06,20,6.50
2015,02,16,06,21,6.40
2015,02,16,06,22,6.40
2015,02,16,06,23,6.40
2015,02,16,06,24,6.30
2015,02,16,06,25,6.30
2015,02,16,06,26,6.30
2015,02,16,06,27,6.20
2015,02,16,06,28,6.20
2015,02,16,06,29,6.20
2015,02,16,06,30,6.10
2015,02,16,06,31,6.10
2015,02,16,06,32,6.10
2015,02,16,06,33,6.10
2015,02,16,06,34,6.00
2015,02,16,06,35,6.00
2015,02,16,06,36,6.00
2015,02,16,06,37,6.00
2015,02,16,06,38,5.90
2015,02,16,06,39,5.90
2015,02,16,06,40,5.90
2015,02,16,06,41,5.90
2015,02,16,06,42,5.90
2015,02,16,06,43,5.80
2015,02,16,06,44,5.80
2015,02,16,06,45,5.80
2015,02,16,06,46,5.80
2015,02,16,06,47,5.80
2015,02,16,06,48,5.80
2015,02,16,06,49,5.70
2015,02,16,06,50,5.70
2015,02,16,06,51,5.70
2015,02,16,06,52,5.60
2015,02,16,06,53,5.60
2015,02,16,06,54,5.60
2015,02,16,06,55,5.50
2015,02,16,06,56,5.50
2015,02,16,06,57,5.50
2015,02,16,06,58,5.50
2015,02,16,06,59,5.50
2015,02,16,07,00,5.40
2015,02,16,07,01,5.40
2015,02,16,07,02,5.40
2015,02,16,07,03,5.50
2015,02,16,07,04,5.50
2015,02,16,07,05,5.60
2015,02,16,07,06,5.60
2015,02,16,07,07,5.70
2015,02,16,07,08,5.70
2015,02,16,07,09,5.80
2015,02,16,07,10,5.80
2015,02,16,07,11,5.80
2015,02,16,07,12,5.90
2015,02,16,07,13,5.90
2015,02,16,07,14,5.90
2015,02,16,07,15,6.00
2015,02,16,07,16,6.00
2015,02,16,07,17,6.00
2015,02,16,07,18,6.00
2015,02,16,07,19,6.10
2015,02,16,07,20,6.10
2015,02,16,07,21,6.10
2015,02,16,07,22,6.10
2015,02,16,07,23,6.00
2015,02,16,07,24,6.00
2015,02,16,07,25,5.90
2015,02,16,07,26,5.90
2015,02,16,07,27,5.90
2015,02,16,07,28,5.90
2015,02,16,07,29,5.90
2015,02,16,07,30,5.80
2015,02,16,07,31,5.80
2015,02,16,07,32,5.80
2015,02,16,07,33,5.80
2015,02,16,07,34,5.80
2015,02,16,07,35,5.80
2015,02,16,07,36,5.80
2015,02,16,07,37,5.80
2015,02,16,07,38,5.70
2015,02,16,07,39,5.70
2015,02,16,07,40,5.70
2015,02,16,07,41,5.70
2015,02,16,07,42,5.60
2015,02,16,07,43,5.60
2015,02,16,07,44,5.60
2015,02,16,07,45,5.60
2015,02,16,07,46,5.50
2015,02,16,07,47,5.50
2015,02,16,07,48,5.50
2015,02,16,07,49,5.40
2015,02,16,07,50,5.40
2015,02,16,07,51,5.40
2015,02,16,07,52,5.40
2015,02,16,07,53,5.40
2015,02,16,07,54,5.40
2015,02,16,07,55,5.30
2015,02,16,07,56,5.30
2015,02,16,07,57,5.30
2015,02,16,07,58,5.30
2015,02,16,07,59,5.30
2015,02,16,08,00,5.30
2015,02,16,08,01,5.30
2015,02,16,08,02,5.30
2015,02,16,08,03,5.30
2015,02,16,08,04,5.30
2015,02,16,08,05,5.30
2015,02,16,08,06,5.30
2015,02,16,08,07,5.30
2015,02,16,08,08,5.30
2015,02,16,08,09,5.30
2015,02,16,08,10,5.30
2015,02,16,08,11,5.30
2015,02,16,08,12,5.30
2015,02,16,08,13,5.30
2015,02,16,08,14,5.30
2015,02,16,08,15,5.30
2015,02,16,08,16,5.30
2015,02,16,08,17,5.30
2015,02,16,08,18,5.30
2015,02,16,08,19,5.30
2015,02,16,08,20,5.30
2015,02,16,08,21,5.40
2015,02,16,08,22,5.40
2015,02,16,08,23,5.40
2015,02,16,08,24,5.50
2015,02,16,08,25,5.50
2015,02,16,08,26,5.50
2015,02,16,08,27,5.60
2015,02,16,08,28,5.60
2015,02,16,08,29,5.60
2015,02,16,08,30,5.70
2015,02,16,08,31,5.70
2015,02,16,08,32,5.70
2015,02,16,08,33,5.80
2015,02,16,08,34,5.80
2015,02,16,08,35,5.90
2015,02,16,08,36,6.00
2015,02,16,08,37,6.00
2015,02,16,08,38,6.10
2015,02,16,08,39,6.20
2015,02,16,08,40,6.20
2015,02,16,08,41,6.30
2015,02,16,08,42,6.40
2015,02,16,08,43,6.50
2015,02,16,08,44,6.60
2015,02,16,08,45,6.70
2015,02,16,08,46,6.80
2015,02,16,08,47,6.90
2015,02,16,08,48,6.90
2015,02,16,08,49,7.00
2015,02,16,08,50,7.10
2015,02,16,08,51,7.20
2015,02,16,08,52,7.30
2015,02,16,08,53,7.30
2015,02,16,08,54,7.40
2015,02,16,08,55,7.50
2015,02,16,08,56,7.60
2015,02,16,08,57,7.70
2015,02,16,08,58,7.80
2015,02,16,08,59,7.80
2015,02,16,09,00,7.90
2015,02,16,09,01,7.90
2015,02,16,09,02,8.00
2015,02,16,09,03,8.00
2015,02,16,09,04,8.10
2015,02,16,09,05,8.20
2015,02,16,09,06,8.20
2015,02,16,09,07,8.30
2015,02,16,09,08,8.30
2015,02,16,09,09,8.30
2015,02,16,09,10,8.30
2015,02,16,09,11,8.40
2015,02,16,09,12,8.40
2015,02,16,09,13,8.40
2015,02,16,09,14,8.40
2015,02,16,09,15,8.40
2015,02,16,09,16,8.50
2015,02,16,09,17,8.50
2015,02,16,09,18,8.50
2015,02,16,09,19,8.60
2015,02,16,09,20,8.60
2015,02,16,09,21,8.60
2015,02,16,09,22,8.60
2015,02,16,09,23,8.70
2015,02,16,09,24,8.70
2015,02,16,09,25,8.80
2015,02,16,09,26,8.80
2015,02,16,09,27,8.90
2015,02,16,09,28,9.00
2015,02,16,09,29,9.10
2015,02,16,09,30,9.10
2015,02,16,09,31,9.20
2015,02,16,09,32,9.30
2015,02,16,09,33,9.30
2015,02,16,09,34,9.40
2015,02,16,09,35,9.50
2015,02,16,09,36,9.50
2015,02,16,09,37,9.60
2015,02,16,09,38,9.60
2015,02,16,09,39,9.60
2015,02,16,09,40,9.70
2015,02,16,09,41,9.70
2015,02,16,09,42,9.70
2015,02,16,09,43,9.80
2015,02,16,09,44,9.80
2015,02,16,09,45,9.80
2015,02,16,09,46,9.80
2015,02,16,09,47,9.80
2015,02,16,09,48,9.90
2015,02,16,09,49,9.90
2015,02,16,09,50,9.90
2015,02,16,09,51,10.00
2015,02,16,09,52,10.00
2015,02,16,09,53,10.10
2015,02,16,09,54,10.10
2015,02,16,09,55,10.10
2015,02,16,09,56,10.10
2015,02,16,09,57,10.20
2015,02,16,09,58,10.20
2015,02,16,09,59,10.20
2015,02,16,10,00,10.20
2015,02,16,10,01,10.20
2015,02,16,10,02,10.20
2015,02,16,10,03,10.20
2015,02,16,10,04,10.20
2015,02,16,10,05,10.20
2015,02,16,10,06,10.20
2015,02,16,10,07,10.20
2015,02,16,10,08,10.20
2015,02,16,10,09,10.20
2015,02,16,10,10,10.20
2015,02,16,10,11,10.20
2015,02,16,10,12,10.20
2015,02,16,10,13,10.30
2015,02,16,10,14,10.30
2015,02,16,10,15,10.40
2015,02,16,10,16,10.40
2015,02,16,10,17,10.50
2015,02,16,10,18,10.60
2015,02,16,10,19,10.70
2015,02,16,10,20,10.80
2015,02,16,10,21,10.80
2015,02,16,10,22,10.90
2015,02,16,10,23,11.00
2015,02,16,10,24,11.00
2015,02,16,10,25,11.10
2015,02,16,10,26,11.10
2015,02,16,10,27,11.20
2015,02,16,10,28,11.30
2015,02,16,10,29,11.40
2015,02,16,10,30,11.40
2015,02,16,10,31,11.50
2015,02,16,10,32,11.50
2015,02,16,10,33,11.60
2015,02,16,10,34,11.60
2015,02,16,10,35,11.60
2015,02,16,10,36,11.60
2015,02,16,10,37,11.60
2015,02,16,10,38,11.70
2015,02,16,10,39,11.70
2015,02,16,10,40,11.80
2015,02,16,10,41,11.80
2015,02,16,10,42,11.70
2015,02,16,10,43,11.70
2015,02,16,10,44,11.70
2015,02,16,10,45,11.70
2015,02,16,10,46,11.70
2015,02,16,10,47,11.70
2015,02,16,10,48,11.60
2015,02,16,10,49,11.60
2015,02,16,10,50,11.60
2015,02,16,10,51,11.60
2015,02,16,10,52,11.60
2015,02,16,10,53,11.60
2015,02,16,10,54,11.70
2015,02,16,10,55,11.70
2015,02,16,10,56,11.70
2015,02,16,10,57,11.70
2015,02,16,10,58,11.70
2015,02,16,10,59,11.70
2015,02,16,11,00,11.70
2015,02,16,11,01,11.70
2015,02,16,11,02,11.70
2015,02,16,11,03,11.70
2015,02,16,11,04,11.80
2015,02,16,11,05,11.80
2015,02,16,11,06,11.80
2015,02,16,11,07,11.80
2015,02,16,11,08,11.70
2015,02,16,11,09,11.70
2015,02,16,11,10,11.70
2015,02,16,11,11,11.80
2015,02,16,11,12,11.80
2015,02,16,11,13,11.80
2015,02,16,11,14,11.90
2015,02,16,11,15,11.90
2015,02,16,11,16,11.90
2015,02,16,11,17,11.90
2015,02,16,11,18,11.90
2015,02,16,11,19,11.90
2015,02,16,11,20,11.80
2015,02,16,11,21,11.80
2015,02,16,11,22,11.80
2015,02,16,11,23,11.80
2015,02,16,11,24,11.80
2015,02,16,11,25,11.70
2015,02,16,11,26,11.70
2015,02,16,11,27,11.70
2015,02,16,11,28,11.70
2015,02,16,11,29,11.70
2015,02,16,11,30,11.70
2015,02,16,11,31,11.70
2015,02,16,11,32,11.70
2015,02,16,11,33,11.70
2015,02,16,11,34,11.70
2015,02,16,11,35,11.70
2015,02,16,11,36,11.70
2015,02,16,11,37,11.70
2015,02,16,11,38,11.70
2015,02,16,11,39,11.70
2015,02,16,11,40,11.70
2015,02,16,11,41,11.80
2015,02,16,11,42,11.80
2015,02,16,11,43,11.80
2015,02,16,11,44,11.80
2015,02,16,11,45,11.80
2015,02,16,11,46,11.80
2015,02,16,11,47,11.80
2015,02,16,11,48,11.80
2015,02,16,11,49,11.80
2015,02,16,11,50,11.80
2015,02,16,11,51,11.80
2015,02,16,11,52,11.80
2015,02,16,11,53,11.80
2015,02,16,11,54,11.80
2015,02,16,11,55,11.80
2015,02,16,11,56,11.80
2015,02,16,11,57,11.80
2015,02,16,11,58,11.70
2015,02,16,11,59,11.70
2015,02,16,12,00,11.70
2015,02,16,12,01,11.70
2015,02,16,12,02,11.70
2015,02,16,12,03,11.60
2015,02,16,12,04,11.60
2015,02,16,12,05,11.60
2015,02,16,12,06,11.60
2015,02,16,12,07,11.60
2015,02,16,12,08,11.60
2015,02,16,12,09,11.60
2015,02,16,12,10,11.60
2015,02,16,12,11,11.60
2015,02,16,12,12,11.60
2015,02,16,12,13,11.60
2015,02,16,12,14,11.60
2015,02,16,12,15,11.50
2015,02,16,12,16,11.60
2015,02,16,12,17,11.60
2015,02,16,12,18,11.60
2015,02,16,12,19,11.60
2015,02,16,12,20,11.60
2015,02,16,12,21,11.60
2015,02,16,12,22,11.70
2015,02,16,12,23,11.70
2015,02,16,12,24,11.80
2015,02,16,12,25,11.80
2015,02,16,12,26,11.80
2015,02,16,12,27,11.90
2015,02,16,12,28,12.00
2015,02,16,12,29,12.00
2015,02,16,12,30,12.10
2015,02,16,12,31,12.10
2015,02,16,12,32,12.20
2015,02,16,12,33,12.20
2015,02,16,12,34,12.20
2015,02,16,12,35,12.30
2015,02,16,12,36,12.40
2015,02,16,12,37,12.40
2015,02,16,12,38,12.40
2015,02,16,12,39,12.40
2015,02,16,12,40,12.50
2015,02,16,12,41,12.50
2015,02,16,12,42,12.60
2015,02,16,12,43,12.60
2015,02,16,12,44,12.60
2015,02,16,12,45,12.60
2015,02,16,12,46,12.70
2015,02,16,12,47,12.70
2015,02,16,12,48,12.80
2015,02,16,12,49,12.80
2015,02,16,12,50,12.80
2015,02,16,12,51,12.90
2015,02,16,12,52,12.90
2015,02,16,12,53,12.80
2015,02,16,12,54,12.80
2015,02,16,12,55,12.80
2015,02,16,12,56,12.70
2015,02,16,12,57,12.70
2015,02,16,12,58,12.70
2015,02,16,12,59,12.70
2015,02,16,13,00,12.70
2015,02,16,13,01,12.80
2015,02,16,13,02,12.90
2015,02,16,13,03,12.90
2015,02,16,13,04,13.00
2015,02,16,13,05,13.00
2015,02,16,13,06,13.00
2015,02,16,13,07,13.10
2015,02,16,13,08,13.00
2015,02,16,13,09,13.00
2015,02,16,13,10,13.00
2015,02,16,13,11,13.00
2015,02,16,13,12,13.00
2015,02,16,13,13,12.90
2015,02,16,13,14,12.90
2015,02,16,13,15,12.90
2015,02,16,13,16,12.90
2015,02,16,13,17,12.80
2015,02,16,13,18,12.80
2015,02,16,13,19,12.80
2015,02,16,13,20,12.80
2015,02,16,13,21,12.70
2015,02,16,13,22,12.70
2015,02,16,13,23,12.70
2015,02,16,13,24,12.70
2015,02,16,13,25,12.80
2015,02,16,13,26,12.80
2015,02,16,13,27,12.80
2015,02,16,13,28,12.80
2015,02,16,13,29,12.90
2015,02,16,13,30,12.90
2015,02,16,13,31,13.00
2015,02,16,13,32,13.00
2015,02,16,13,33,13.00
2015,02,16,13,34,13.00
2015,02,16,13,35,12.90
2015,02,16,13,36,12.90
2015,02,16,13,37,12.90
2015,02,16,13,38,12.80
2015,02,16,13,39,12.80
2015,02,16,13,40,12.80
2015,02,16,13,41,12.80
2015,02,16,13,42,12.80
2015,02,16,13,43,12.80
2015,02,16,13,44,12.90
2015,02,16,13,45,13.00
2015,02,16,13,46,13.00
2015,02,16,13,47,13.10
2015,02,16,13,48,13.20
2015,02,16,13,49,13.20
2015,02,16,13,50,13.30
2015,02,16,13,51,13.30
2015,02,16,13,52,13.30
2015,02,16,13,53,13.30
2015,02,16,13,54,13.30
2015,02,16,13,55,13.30
2015,02,16,13,56,13.30
2015,02,16,13,57,13.30
2015,02,16,13,58,13.40
2015,02,16,13,59,13.40
2015,02,16,14,00,13.40
2015,02,16,14,01,13.50
2015,02,16,14,02,13.50
2015,02,16,14,03,13.60
2015,02,16,14,04,13.60
2015,02,16,14,05,13.50
2015,02,16,14,06,13.50
2015,02,16,14,07,13.50
2015,02,16,14,08,13.50
2015,02,16,14,09,13.50
2015,02,16,14,10,13.50
2015,02,16,14,11,13.50
2015,02,16,14,12,13.40
2015,02,16,14,13,13.50
2015,02,16,14,14,13.50
2015,02,16,14,15,13.40
2015,02,16,14,16,13.40
2015,02,16,14,17,13.30
2015,02,16,14,18,13.20
2015,02,16,14,19,13.20
2015,02,16,14,20,13.10
2015,02,16,14,21,13.10
2015,02,16,14,22,13.10
2015,02,16,14,23,13.10
2015,02,16,14,24,13.00
2015,02,16,14,25,13.00
2015,02,16,14,26,13.00
2015,02,16,14,27,12.90
2015,02,16,14,28,12.90
2015,02,16,14,29,12.90
2015,02,16,14,30,12.80
2015,02,16,14,31,12.80
2015,02,16,14,32,12.80
2015,02,16,14,33,12.80
2015,02,16,14,34,12.70
2015,02,16,14,35,12.70
2015,02,16,14,36,12.70
2015,02,16,14,37,12.70
2015,02,16,14,38,12.70
2015,02,16,14,39,12.60
2015,02,16,14,40,12.60
2015,02,16,14,41,12.60
2015,02,16,14,42,12.60
2015,02,16,14,43,12.60
2015,02,16,14,44,12.60
2015,02,16,14,45,12.60
2015,02,16,14,46,12.60
2015,02,16,14,47,12.70
2015,02,16,14,48,12.70
2015,02,16,14,49,12.70
2015,02,16,14,50,12.70
2015,02,16,14,51,12.70
2015,02,16,14,52,12.70
2015,02,16,14,53,12.60
2015,02,16,14,54,12.60
2015,02,16,14,55,12.60
2015,02,16,14,56,12.60
2015,02,16,14,57,12.60
2015,02,16,14,58,12.60
2015,02,16,14,59,12.50
2015,02,16,15,00,12.50
2015,02,16,15,01,12.50
2015,02,16,15,02,12.50
2015,02,16,15,03,12.50
2015,02,16,15,04,12.50
2015,02,16,15,05,12.50
2015,02,16,15,06,12.50
2015,02,16,15,07,12.60
2015,02,16,15,08,12.60
2015,02,16,15,09,12.60
2015,02,16,15,10,12.60
2015,02,16,15,11,12.60
2015,02,16,15,12,12.60
2015,02,16,15,13,12.50
2015,02,16,15,14,12.40
2015,02,16,15,15,12.40
2015,02,16,15,16,12.40
2015,02,16,15,17,12.40
2015,02,16,15,18,12.30
2015,02,16,15,19,12.30
2015,02,16,15,20,12.30
2015,02,16,15,21,12.30
2015,02,16,15,22,12.30
2015,02,16,15,23,12.30
2015,02,16,15,24,12.30
2015,02,16,15,25,12.40
2015,02,16,15,26,12.40
2015,02,16,15,27,12.40
2015,02,16,15,28,12.40
2015,02,16,15,29,12.40
2015,02,16,15,30,12.50
2015,02,16,15,31,12.50
2015,02,16,15,32,12.50
2015,02,16,15,33,12.60
2015,02,16,15,34,12.60
2015,02,16,15,35,12.60
2015,02,16,15,36,12.60
2015,02,16,15,37,12.60
2015,02,16,15,38,12.50
2015,02,16,15,39,12.50
2015,02,16,15,40,12.50
2015,02,16,15,41,12.50
2015,02,16,15,42,12.50
2015,02,16,15,43,12.50
2015,02,16,15,44,12.50
2015,02,16,15,45,12.50
2015,02,16,15,46,12.50
2015,02,16,15,47,12.50
2015,02,16,15,48,12.40
2015,02,16,15,49,12.40
2015,02,16,15,50,12.30
2015,02,16,15,51,12.30
2015,02,16,15,52,12.30
2015,02,16,15,53,12.30
2015,02,16,15,54,12.30
2015,02,16,15,55,12.30
2015,02,16,15,56,12.20
2015,02,16,15,57,12.20
2015,02,16,15,58,12.20
2015,02,16,15,59,12.20
2015,02,16,16,00,12.20
2015,02,16,16,01,12.20
2015,02,16,16,02,12.20
2015,02,16,16,03,12.20
2015,02,16,16,04,12.10
2015,02,16,16,05,12.10
2015,02,16,16,06,12.10
2015,02,16,16,07,12.10
2015,02,16,16,08,12.10
2015,02,16,16,09,12.10
2015,02,16,16,10,12.10
2015,02,16,16,11,12.10
2015,02,16,16,12,12.10
2015,02,16,16,13,12.00
2015,02,16,16,14,12.00
2015,02,16,16,15,12.00
2015,02,16,16,16,12.00
2015,02,16,16,17,12.00
2015,02,16,16,18,12.00
2015,02,16,16,19,12.00
2015,02,16,16,20,12.00
2015,02,16,16,21,12.00
2015,02,16,16,22,12.00
2015,02,16,16,23,12.00
2015,02,16,16,24,11.90
2015,02,16,16,25,11.90
2015,02,16,16,26,11.90
2015,02,16,16,27,11.80
2015,02,16,16,28,11.80
2015,02,16,16,29,11.80
2015,02,16,16,30,11.80
2015,02,16,16,31,11.80
2015,02,16,16,32,11.80
2015,02,16,16,33,11.80
2015,02,16,16,34,11.80
2015,02,16,16,35,11.80
2015,02,16,16,36,11.80
2015,02,16,16,37,11.80
2015,02,16,16,38,11.80
2015,02,16,16,39,11.80
2015,02,16,16,40,11.80
2015,02,16,16,41,11.80
2015,02,16,16,42,11.80
2015,02,16,16,43,11.80
2015,02,16,16,44,11.80
2015,02,16,16,45,11.80
2015,02,16,16,46,11.80
2015,02,16,16,47,11.80
2015,02,16,16,48,11.80
2015,02,16,16,49,11.80
2015,02,16,16,50,11.80
2015,02,16,16,51,11.70
2015,02,16,16,52,11.70
2015,02,16,16,53,11.70
2015,02,16,16,54,11.70
2015,02,16,16,55,11.70
2015,02,16,16,56,11.60
2015,02,16,16,57,11.60
2015,02,16,16,58,11.60
2015,02,16,16,59,11.60
2015,02,16,17,00,11.60
2015,02,16,17,01,11.60
2015,02,16,17,02,11.50
2015,02,16,17,03,11.50
2015,02,16,17,04,11.40
2015,02,16,17,05,11.40
2015,02,16,17,06,11.40
2015,02,16,17,07,11.30
2015,02,16,17,08,11.30
2015,02,16,17,09,11.30
2015,02,16,17,10,11.20
2015,02,16,17,11,11.20
2015,02,16,17,12,11.20
2015,02,16,17,13,11.10
2015,02,16,17,14,11.10
2015,02,16,17,15,11.00
2015,02,16,17,16,11.00
2015,02,16,17,17,11.00
2015,02,16,17,18,10.90
2015,02,16,17,19,10.80
2015,02,16,17,20,10.80
2015,02,16,17,21,10.80
2015,02,16,17,22,10.80
2015,02,16,17,23,10.70
2015,02,16,17,24,10.70
2015,02,16,17,25,10.60
2015,02,16,17,26,10.60
2015,02,16,17,27,10.50
2015,02,16,17,28,10.50
2015,02,16,17,29,10.40
2015,02,16,17,30,10.40
2015,02,16,17,31,10.40
2015,02,16,17,32,10.30
2015,02,16,17,33,10.30
2015,02,16,17,34,10.20
2015,02,16,17,35,10.10
2015,02,16,17,36,10.10
2015,02,16,17,37,10.00
2015,02,16,17,38,10.00
2015,02,16,17,39,9.90
2015,02,16,17,40,9.90
2015,02,16,17,41,9.80
2015,02,16,17,42,9.80
2015,02,16,17,43,9.70
2015,02,16,17,44,9.70
2015,02,16,17,45,9.60
2015,02,16,17,46,9.60
2015,02,16,17,47,9.60
2015,02,16,17,48,9.60